Temperature
23 22 22 21 21 20 20 20 20 19 19 19 19 18 18 18 18 18 18 18 18 17 17 17 17 17 17 17 17 17 17 17 17 18 18 18 18 17 17 17 17 17 17
23 22 22 21 21 20 20 20 20 19 19 19 19 18 18 18 18 18 18 18 17 17 17 17 17 17 17 17 17 17 17 17 17 17 18 19 18 17 17 17 17 17 17
24 23 22 22 21 21 20 20 20 19 19 19 19 18 18 18 18 18 18 17 17 17 17 17 17 17 17 17 17 17 17 17 17 17 18 18 19 18 18 17 17 17 17
25 24 23 22 21 21 20 20 20 20 19 19 19 19 19 18 18 18 17 17 17 17 17 17 17 17 17 17 17 17 17 17 17 17 17 17 17 18 18 17 17 17 17
25 24 23 22 22 21 20 20 20 20 20 19 19 19 18 18 18 17 17 17 17 17 17 16 17 17 16 16 16 16 17 17 17 17 17 17 17 18 18 18 17 17 17
24 24 23 22 21 21 20 20 19 20 19 19 19 19 18 18 18 17 17 17 17 17 17 16 16 16 16 16 16 16 16 16 16 16 17 17 17 17 17 17 17 17 17
24 23 23 22 21 21 20 20 19 19 19 19 19 18 18 18 17 17 17 17 17 17 17 16 16 16 16 16 16 16 16 16 16 16 16 17 17 17 17 17 17 17 17
24 23 22 22 21 20 20 19 19 19 19 19 18 18 18 18 17 17 17 17 17 17 16 16 16 16 16 16 16 16 16 16 16 16 16 16 16 17 17 17 17 17 17
24 23 22 21 21 20 20 19 19 19 19 18 18 18 18 18 17 17 17 17 16 16 16 16 16 16 16 16 16 16 16 16 16 16 16 16 16 16 16 16 16 16 17
24 23 22 21 21 20 19 19 19 19 19 18 18 18 18 18 17 17 17 16 16 16 16 16 16 16 16 16 16 16 16 16 16 16 16 16 16 16 16 16 16 16 16
23 23 22 21 20 20 20 19 19 18 18 18 18 18 18 17 17 17 17 16 16 16 16 16 15 15 15 16 16 16 16 16 16 16 16 16 16 15 16 15 16 16 16
23 22 21 21 20 20 20 19 19 18 18 18 18 18 17 17 17 17 16 16 16 16 16 16 15 15 15 15 15 15 15 15 15 15 15 15 15 15 15 15 15 15 15
22 21 21 20 20 19 19 19 19 18 18 18 18 17 17 17 17 17 16 16 16 16 16 16 15 15 15 15 15 15 15 15 15 15 15 15 15 15 15 15 15 15 15
22 21 21 20 20 19 19 18 18 18 18 18 17 17 17 17 17 16 16 16 16 16 16 15 15 15 15 15 15 15 15 15 15 15 14 14 14 14 14 14 14 14 14
21 21 20 19 19 19 18 18 18 18 18 17 17 17 17 16 16 16 16 16 15 15 15 15 15 15 15 14 14 15 14 14 14 14 14 14 14 14 14 14 14 14 14
21 20 20 19 18 18 18 18 18 17 17 17 17 17 17 16 16 16 16 15 15 15 15 15 15 14 14 14 14 14 14 14 14 14 14 14 14 14 14 14 14 14 13
21 20 19 19 18 18 18 18 17 17 17 17 17 17 16 16 16 16 15 15 15 15 15 14 14 14 14 14 14 14 14 13 13 13 13 13 13 13 13 13 13 13 13
20 19 19 18 18 18 17 17 17 17 17 17 17 16 16 16 16 15 15 15 15 15 14 14 14 14 14 14 14 14 13 13 13 13 13 13 13 13 13 13 13 12 13
19 18 18 18 18 17 17 17 17 17 16 16 16 16 16 16 15 15 15 15 14 14 14 14 14 13 13 13 13 13 13 13 13 12 12 12 12 12 12 12 12 12 12
18 18 17 17 17 17 17 16 16 16 16 16 16 16 16 15 15 15 15 14 14 14 14 13 13 13 13 13 13 13 13 13 12 12 12 12 12 12 12 12 12 12 12
17 17 17 17 16 16 16 16 16 16 16 15 15 15 15 15 15 14 14 14 14 14 13 13 13 13 12 12 13 12 12 12 12 12 12 12 12 12 12 11 11 11 11
17 17 16 16 16 16 16 15 15 15 15 15 15 15 15 14 14 14 14 14 13 13 13 13 13 13 12 12 12 12 12 12 11 11 11 11 11 11 11 11 11 11 11
16 16 16 15 15 15 15 15 15 15 15 15 14 14 14 14 14 14 14 13 13 13 13 13 13 12 12 12 12 12 11 11 11 11 11 11 11 11 11 11 11 11 11
16 16 15 15 15 15 14 14 14 14 14 14 14 14 13 13 13 13 13 13 13 13 13 13 12 12 12 12 11 11 11 11 11 11 11 11 10 10 10 10 10 10 10
15 15 15 15 15 14 14 14 14 14 14 14 14 13 13 13 13 13 13 13 12 12 12 12 12 12 11 11 11 11 11 11 10 10 10 10 10 10 10 10 10 10 10
15 15 14 14 14 14 14 14 14 13 13 13 13 13 13 13 13 12 12 12 12 12 12 12 11 11 11 11 11 11 10 10 10 10 10 10 10 10 10 10 10 10 10
Wind_Speed
6 6 6 5 5 5 5 4 4 4 3 2 2 2 2 2 2 2 3 3 3 3 2 2 2 2 2 3 2 2 1 2 2 1 2 2 2 2 1 1 1 1 2
7 7 6 6 5 5 5 5 4 4 3 3 2 2 2 1 2 2 3 3 3 3 2 3 2 3 2 2 2 2 2 2 1 1 1 1 2 1 2 2 1 1 2
7 8 8 7 6 6 5 5 5 4 4 4 3 3 3 1 2 2 2 3 3 3 4 3 3 3 2 2 2 2 2 1 1 2 2 1 1 1 2 2 1 1 1
7 7 8 8 7 7 6 6 6 5 5 4 3 3 2 2 2 1 3 3 3 3 3 3 2 2 2 2 2 2 2 2 1 1 1 2 2 1 1 2 2 1 2
7 7 8 8 7 7 7 7 6 6 5 4 4 3 2 2 2 2 3 2 3 3 3 2 2 2 2 2 3 3 3 2 3 2 1 1 0 1 1 0 1 1 1
6 6 7 8 7 7 7 7 7 6 5 5 4 4 3 2 2 2 2 1 2 2 2 2 2 2 2 2 2 2 2 3 3 3 2 1 1 1 0 1 1 0 0
6 7 8 8 8 8 8 7 7 7 6 5 4 4 4 3 3 1 2 1 1 1 2 2 2 2 2 2 3 2 3 2 2 3 2 2 1 1 1 1 1 1 1
6 6 7 8 8 8 8 8 8 7 7 6 5 4 4 2 2 1 0 0 1 1 2 2 2 2 3 2 2 2 2 2 2 3 3 2 2 1 1 1 1 2 2
5 6 7 7 8 8 8 8 8 7 6 6 5 4 3 2 2 2 1 0 0 0 1 1 2 2 2 2 2 2 2 2 2 2 2 2 1 2 2 2 2 3 2
5 5 6 7 7 7 8 8 7 7 6 6 5 4 4 3 2 1 1 1 1 1 1 2 2 2 2 2 2 2 2 2 2 2 2 3 2 1 2 2 2 2 3
6 6 6 7 6 7 7 8 7 7 6 6 5 4 4 3 3 2 1 0 0 0 1 1 2 2 2 2 2 2 2 2 2 2 2 2 2 2 2 1 1 2 2
5 6 6 6 6 6 6 6 7 7 6 5 5 5 4 3 3 2 1 1 1 1 0 1 2 2 2 2 2 3 2 2 2 2 2 2 2 2 2 2 2 2 2
5 6 6 6 6 6 5 5 5 6 6 6 5 4 4 3 3 2 1 1 1 1 0 1 2 2 2 2 2 2 2 3 3 3 3 3 2 2 2 2 2 2 2
6 5 5 5 6 5 5 5 5 5 5 5 5 4 3 3 2 2 2 1 1 1 1 1 1 2 2 2 3 2 2 3 3 3 3 3 3 3 3 3 3 3 3
5 5 5 5 5 6 5 5 5 5 5 5 5 4 3 3 2 2 2 2 1 1 0 1 1 2 2 2 3 3 2 3 3 3 3 3 3 3 3 3 2 3 3
5 5 5 5 5 5 6 6 5 5 5 5 4 4 3 3 2 2 2 2 1 0 1 1 1 2 3 5 4 4 3 3 3 3 3 2 2 1 0 2 2 2 3
5 5 5 5 5 5 5 5 5 5 5 5 4 4 3 2 2 2 2 1 1 1 1 2 2 2 3 4 3 4 4 3 3 3 3 3 2 2 1 1 3 2 2
4 4 4 4 5 5 5 5 5 5 5 4 4 4 3 3 3 2 2 1 1 1 1 2 2 2 2 3 3 3 3 2 2 2 2 2 2 3 3 3 2 2 2
3 4 4 5 5 5 5 5 5 5 5 4 3 3 3 3 2 2 1 1 1 0 0 1 2 2 2 3 3 4 2 2 2 2 2 2 2 3 4 2 2 2 1
4 4 5 5 5 5 5 5 5 5 4 3 3 2 2 2 2 1 1 1 1 0 0 1 2 2 2 3 2 4 2 2 2 1 1 2 3 3 3 2 2 2 1
5 6 6 5 5 5 5 5 4 4 3 3 3 3 2 2 2 2 1 1 1 1 1 1 1 1 2 3 3 4 3 3 3 2 2 2 4 2 2 3 2 2 3
6 6 6 6 5 5 5 5 4 3 3 3 3 3 2 1 2 2 1 1 0 1 1 1 1 1 1 2 3 3 4 5 3 3 3 3 3 0 2 2 1 2 4
6 6 6 6 5 5 5 4 3 3 3 2 2 2 2 2 1 1 1 1 1 1 1 1 1 1 1 1 2 1 1 3 3 2 4 3 1 3 3 3 3 5 5
6 6 6 6 5 5 4 4 3 3 3 3 2 2 2 2 1 0 0 0 1 1 1 2 2 2 1 2 2 1 1 2 2 2 1 3 4 4 2 2 4 4 3
6 6 6 6 5 5 4 4 3 3 3 3 2 2 2 2 1 1 0 0 1 1 2 2 2 2 2 2 3 3 3 3 3 4 2 2 2 2 2 2 3 3 3
6 6 6 5 5 4 4 3 3 3 3 2 2 2 2 2 2 2 2 2 2 2 1 1 3 2 2 1 1 2 3 3 4 4 2 2 2 3 3 3 3 3 3
Wind_Direction
173 167 164 159 155 155 152 152 151 148 155 154 151 132 105 84 82 82 65 48 37 39 30 29 38 15 30 19 19 20 59 59 51 78 99 111 110 99 95 91 88 113 144
175 171 172 167 164 160 158 156 158 153 160 144 138 124 100 84 74 60 64 46 41 33 46 30 15 31 35 29 18 9 10 31 30 337 317 146 139 126 99 98 114 104 128
185 178 175 173 173 168 167 160 157 154 155 151 148 135 136 133 98 75 67 46 44 44 42 38 24 23 16 35 11 354 11 15 21 358 333 331 6 88 120 112 101 103 113
189 184 177 175 175 172 165 163 159 155 155 158 151 145 130 104 76 67 65 58 56 51 57 50 31 9 10 21 346 18 339 318 340 12 345 343 354 309 156 133 110 127 135
187 185 181 174 172 169 164 160 156 152 152 151 151 162 146 125 106 91 83 59 63 53 46 38 28 10 1 3 350 353 333 322 324 333 333 335 310 275 282 292 26 77 124
182 182 176 170 171 167 164 160 155 152 154 157 153 154 141 130 112 102 94 85 78 60 42 29 15 356 355 354 337 333 337 334 333 323 326 316 320 316 308 243 239 316 262
176 176 172 171 172 170 168 164 157 157 157 155 153 150 150 157 155 158 119 55 49 53 34 7 358 348 346 338 334 337 334 334 321 311 313 308 314 305 274 250 258 272 244
168 172 169 169 170 168 169 166 160 158 158 159 155 150 164 180 156 144 154 123 2 27 16 351 344 337 329 329 331 320 319 324 314 314 312 300 297 279 245 247 245 251 240
158 163 162 165 165 166 166 167 161 160 161 160 158 153 162 162 128 143 200 197 347 296 337 309 310 320 328 326 315 327 320 320 306 304 295 296 303 284 267 261 270 267 266
148 147 148 152 159 162 159 163 162 162 165 166 167 153 160 161 161 165 110 354 329 337 301 291 306 314 319 314 306 300 322 312 307 307 321 309 302 293 274 269 274 279 275
148 143 144 147 148 153 157 160 162 163 165 163 155 148 153 157 162 160 173 180 288 316 313 303 298 300 310 312 303 298 309 306 308 305 304 293 303 288 271 260 260 267 263
137 135 139 145 149 151 152 156 162 163 161 156 154 152 150 156 166 162 176 173 185 242 345 337 315 301 312 318 305 301 312 306 306 307 304 292 274 267 274 265 265 263 268
139 135 138 143 148 150 149 147 153 155 154 151 153 148 153 156 164 167 171 170 184 259 330 2 347 332 330 330 324 320 318 310 307 307 303 298 294 285 272 262 259 252 242
150 143 142 143 143 145 144 142 148 148 147 151 152 150 152 156 168 169 167 171 192 233 282 333 350 341 335 350 339 321 305 306 313 315 310 302 293 282 270 249 242 245 244
161 154 146 139 145 146 146 148 148 146 146 154 158 157 158 165 177 175 171 176 207 231 251 307 328 323 317 355 350 329 304 296 300 310 309 309 323 330 312 296 267 239 238
173 165 154 150 156 153 155 154 151 147 152 160 158 153 157 166 179 187 186 181 183 255 292 293 306 316 337 27 1 330 321 307 295 301 301 292 290 315 252 341 332 304 252
174 169 167 165 161 158 158 158 152 151 156 161 157 152 159 166 179 181 170 175 190 211 264 299 310 325 357 26 1 334 309 305 315 317 317 311 329 325 291 206 208 233 253
163 164 163 156 153 150 149 150 151 153 154 152 153 154 166 176 181 179 173 189 230 248 280 310 312 315 354 26 343 314 282 298 315 313 316 321 330 348 325 273 248 233 220
157 157 153 146 141 144 147 148 153 152 151 149 150 154 164 163 164 167 166 185 230 272 331 328 319 327 360 31 351 311 290 294 299 303 320 321 320 15 342 286 258 250 236
129 137 137 134 134 140 141 144 147 149 151 151 153 156 154 149 137 120 118 101 113 95 34 40 356 344 351 38 2 314 299 311 307 313 321 28 18 30 346 282 268 261 288
123 126 126 122 124 135 140 141 136 146 147 141 142 141 137 139 123 111 112 111 84 74 61 55 15 15 22 56 42 344 319 319 313 321 327 37 84 49 343 304 291 322 310
128 128 124 117 116 124 132 132 131 122 127 135 138 137 138 130 117 117 116 99 97 151 113 66 4 37 58 52 52 21 351 336 322 327 337 22 76 18 278 282 351 308 279
136 134 129 124 117 117 124 125 116 113 120 123 120 119 122 119 126 146 145 165 197 296 346 346 349 7 31 75 120 131 331 322 312 336 15 9 262 234 238 225 247 253 256
145 142 137 131 123 117 119 117 114 119 129 129 131 140 149 147 128 127 92 3 349 332 328 326 325 339 354 349 347 325 287 240 268 299 268 216 227 242 267 244 234 249 270
146 143 140 138 136 132 128 125 117 123 131 134 147 166 172 157 160 173 353 254 353 348 309 312 318 318 311 2 6 320 316 322 327 306 283 284 280 271 268 269 271 268 264
145 144 145 145 143 140 135 132 137 143 155 166 177 184 185 182 200 195 185 148 186 142 169 320 306 304 351 39 6 337 331 329 310 286 279 286 287 287 292 290 287 279 281
Height
1512 1513 1515 1515 1516 1517 1517 1517 1518 1519 1519 1520 1522 1522 1523 1523 1523 1522 1521 1521 1520 1519 1519 1518 1517 1516 1515 1514 1513 1512 1512 1512 1512 1512 1513 1513 1513 1513 1513 1514 1513 1513 1513
1510 1512 1514 1515 1516 1516 1517 1517 1518 1519 1520 1521 1521 1522 1523 1523 1523 1523 1522 1522 1521 1520 1519 1518 1518 1517 1515 1514 1513 1513 1513 1513 1513 1514 1513 1513 1515 1514 1514 1514 1513 1514 1514
1508 1510 1512 1514 1515 1516 1516 1518 1518 1519 1520 1521 1522 1523 1523 1524 1524 1523 1523 1522 1521 1520 1519 1519 1518 1517 1517 1516 1515 1514 1514 1514 1514 1514 1515 1514 1513 1514 1515 1514 1514 1514 1515
1506 1508 1510 1512 1513 1515 1516 1517 1518 1519 1520 1520 1522 1523 1523 1524 1524 1524 1523 1523 1522 1521 1521 1520 1519 1518 1518 1517 1516 1516 1515 1515 1516 1515 1514 1515 1515 1515 1515 1515 1515 1515 1515
1504 1506 1508 1510 1512 1514 1516 1517 1517 1518 1519 1520 1521 1522 1523 1524 1524 1524 1523 1523 1523 1522 1522 1521 1520 1519 1519 1518 1517 1516 1516 1516 1516 1516 1515 1515 1515 1515 1515 1515 1515 1515 1515
1502 1505 1507 1509 1511 1513 1515 1516 1517 1518 1519 1520 1521 1521 1522 1523 1524 1524 1524 1524 1524 1523 1522 1521 1520 1520 1519 1518 1517 1516 1516 1515 1515 1515 1515 1515 1515 1515 1515 1515 1515 1515 1516
1501 1503 1506 1508 1510 1511 1513 1515 1516 1517 1518 1519 1520 1521 1522 1523 1523 1524 1524 1525 1525 1524 1522 1522 1520 1520 1519 1518 1517 1516 1516 1515 1514 1514 1515 1515 1515 1515 1515 1515 1515 1515 1515
1499 1502 1504 1506 1508 1510 1512 1514 1515 1516 1517 1519 1520 1520 1521 1523 1524 1523 1524 1524 1524 1523 1522 1521 1520 1519 1519 1518 1517 1516 1515 1514 1514 1514 1513 1513 1513 1513 1514 1514 1514 1514 1515
1498 1501 1503 1505 1507 1509 1510 1512 1513 1515 1516 1518 1519 1520 1521 1522 1522 1522 1523 1523 1522 1522 1521 1520 1519 1519 1518 1517 1516 1515 1514 1514 1513 1513 1513 1512 1512 1513 1513 1513 1513 1514 1513
1498 1500 1502 1504 1506 1508 1509 1511 1512 1513 1515 1517 1518 1519 1520 1520 1521 1522 1522 1521 1521 1520 1520 1519 1518 1518 1517 1516 1515 1514 1513 1513 1512 1511 1511 1511 1511 1511 1511 1512 1512 1512 1513
1497 1499 1502 1503 1505 1507 1509 1510 1511 1512 1514 1516 1517 1518 1519 1520 1520 1521 1521 1521 1520 1519 1518 1518 1517 1517 1516 1515 1514 1513 1512 1511 1511 1510 1510 1509 1509 1509 1510 1510 1510 1510 1511
1497 1499 1501 1503 1505 1506 1508 1509 1510 1512 1513 1514 1515 1516 1517 1518 1519 1520 1520 1519 1519 1518 1517 1517 1516 1515 1514 1513 1512 1512 1511 1510 1510 1509 1509 1508 1508 1507 1508 1508 1508 1508 1509
1497 1499 1500 1502 1504 1505 1507 1508 1509 1511 1512 1513 1515 1516 1517 1517 1518 1518 1518 1518 1518 1517 1517 1516 1515 1514 1513 1512 1511 1510 1509 1509 1508 1508 1507 1507 1506 1506 1506 1506 1506 1507 1507
1497 1498 1500 1501 1503 1504 1505 1507 1508 1510 1511 1512 1514 1515 1516 1516 1517 1517 1517 1517 1516 1516 1515 1515 1514 1513 1512 1511 1510 1509 1508 1507 1506 1506 1505 1505 1504 1504 1503 1504 1503 1504 1504
1496 1498 1499 1500 1502 1503 1504 1506 1507 1508 1510 1511 1512 1513 1514 1515 1515 1516 1516 1515 1515 1515 1514 1513 1513 1512 1511 1510 1508 1507 1507 1505 1505 1504 1503 1503 1502 1501 1501 1502 1501 1502 1502
1495 1496 1498 1499 1500 1501 1503 1504 1505 1507 1508 1510 1511 1512 1513 1513 1513 1514 1514 1514 1514 1513 1513 1512 1512 1511 1510 1508 1507 1506 1505 1504 1503 1502 1501 1500 1500 1499 1498 1498 1499 1499 1499
1494 1495 1496 1498 1499 1500 1501 1503 1504 1505 1507 1508 1509 1510 1511 1511 1512 1513 1513 1513 1513 1512 1511 1511 1510 1509 1508 1506 1505 1504 1503 1502 1501 1500 1499 1499 1498 1497 1497 1496 1496 1496 1497
1493 1494 1495 1497 1498 1499 1501 1502 1503 1504 1505 1506 1507 1508 1509 1510 1510 1511 1510 1511 1511 1510 1510 1510 1509 1508 1506 1505 1503 1502 1502 1501 1500 1499 1498 1497 1496 1496 1495 1495 1495 1495 1494
1492 1493 1494 1496 1497 1498 1499 1500 1502 1503 1504 1505 1506 1506 1507 1508 1508 1509 1508 1508 1509 1508 1508 1508 1507 1506 1505 1503 1502 1501 1500 1499 1498 1497 1496 1495 1494 1493 1493 1493 1493 1493 1493
1491 1492 1493 1495 1496 1497 1498 1499 1500 1501 1502 1503 1504 1505 1505 1506 1506 1506 1506 1507 1506 1506 1506 1505 1506 1505 1503 1501 1500 1499 1499 1498 1497 1495 1494 1493 1492 1491 1491 1491 1491 1491 1491
1490 1491 1492 1494 1495 1496 1497 1498 1499 1500 1501 1501 1502 1503 1504 1505 1505 1505 1505 1505 1505 1505 1504 1503 1504 1503 1502 1500 1499 1498 1497 1497 1496 1495 1493 1492 1490 1489 1489 1489 1489 1489 1489
1489 1491 1492 1493 1494 1495 1496 1497 1498 1499 1500 1500 1501 1502 1503 1504 1504 1504 1504 1504 1504 1504 1503 1503 1503 1502 1500 1499 1497 1496 1495 1495 1494 1493 1492 1491 1489 1488 1487 1487 1487 1487 1487
1489 1490 1492 1493 1493 1495 1496 1497 1497 1498 1499 1500 1500 1501 1501 1502 1503 1503 1503 1503 1503 1503 1502 1502 1502 1501 1499 1498 1496 1495 1494 1493 1492 1491 1490 1489 1487 1486 1486 1485 1485 1485 1485
1489 1490 1492 1492 1493 1495 1496 1497 1497 1497 1498 1499 1499 1500 1501 1501 1501 1501 1501 1501 1502 1501 1501 1501 1500 1499 1498 1497 1495 1494 1493 1492 1491 1490 1489 1487 1486 1485 1485 1484 1484 1483 1483
1489 1490 1491 1492 1493 1494 1495 1496 1496 1497 1497 1498 1499 1499 1500 1500 1500 1500 1500 1500 1500 1499 1499 1499 1499 1498 1496 1495 1494 1493 1492 1491 1490 1488 1488 1487 1486 1485 1484 1483 1483 1482 1482
1488 1489 1491 1492 1493 1494 1494 1495 1496 1496 1497 1497 1498 1498 1499 1499 1499 1499 1498 1497 1497 1496 1496 1496 1496 1495 1494 1493 1492 1491 1490 1489 1488 1487 1486 1485 1484 1483 1482 1482 1481 1480 1479